This demonstration page uses our WeatherBlox Daily Observations layout. Learn more.

Left ArrowRight Arrow

39.92423, -83.80882

Hourly Observations for March 18, 2020

Temp ( °F °C ) Dew Point ( °F °C ) Humidity (%) Winds ( mph kmh ) Pressure ( in mb ) Visibility ( mi km ) Precip ( " mm )
12:56 am 00:56 Clear 30 -1.1 29 -1.7 96 96 E 6 9 30.35 1028 8 12.87472 0 0
1:56 am 01:56 Clear 32 0 31 -0.6 96 96 E 5 7 30.35 1028 10 16.0934 0 0
2:56 am 02:56 Clear 29 -1.7 29 -1.7 100 100 ESE 7 11 30.37 1028 9 14.48406 0 0
3:56 am 03:56 Clear 29 -1.7 29 -1.7 100 100 ESE 8 13 30.36 1028 10 16.0934 0 0
4:56 am 04:56 Clear 34 1.1 33 0.6 97 97 SE 10 17 30.33 1027 10 16.0934 0 0
5:56 am 05:56 Clear 32 0 31 -0.6 96 96 E 7 11 30.31 1027 10 16.0934 0 0
6:56 am 06:56 Clear 33 0.6 33 0.6 100 100 SE 9 15 30.32 1027 10 16.0934 0 0
7:56 am 07:56 Sunny 35 1.7 34 1.1 96 96 SE 12 19 30.3 1026 10 16.0934 0 0
8:56 am 08:56 Mostly Sunny 37 2.8 35 1.7 93 93 SE 10 17 30.29 1026 10 16.0934 0 0
9:56 am 09:56 Mostly Cloudy 40 4.4 38 3.3 93 93 ESE 10 17 30.28 1025 10 16.0934 0 0
10:01 am 10:01 Partly Cloudy with Mist and Fog 39 4 37 3 93 93 E 10 17 30.28 1025 0.75 1.207005 0.02 0.508
10:56 am 10:56 Cloudy 41 5 39 3.9 93 93 SE 12 19 30.28 1026 10 16.0934 0.02 0.508
12:56 pm 12:56 Cloudy with Light Rain 44 6.7 43 6.1 96 96 ESE 10 17 30.22 1023 9 14.48406 0.001 0.001
1:09 pm 13:09 Cloudy with Rain 45 7 45 7 100 100 ESE 10 17 30.19 1022 6 9.65604 0.01 0.254
1:56 pm 13:56 Cloudy with Light Rain 45 7.2 45 7.2 100 100 ESE 12 19 30.16 1021 5 8.0467 0.02 0.508
2:46 pm 14:46 Cloudy with Heavy Rain 45 7 45 7 100 100 SE 6 9 30.13 1020 2.5 4.02335 0.12 3.048
2:56 pm 14:56 Cloudy with Heavy Rain 46 7.8 46 7.8 100 100 SE 9 15 30.13 1020 4 6.43736 0.16 4.064
3:06 pm 15:06 Cloudy with Heavy Rain 46 8 46 8 100 100 ESE 9 15 30.11 1020 2.5 4.02335 0.07 1.778
3:14 pm 15:14 Cloudy with Rain 46 8 46 8 100 100 ESE 9 15 30.11 1020 4 6.43736 0.1 2.54
3:56 pm 15:56 Cloudy with Rain 47 8.3 47 8.3 100 100 SE 9 15 30.1 1019 5 8.0467 0.18 4.572
4:56 pm 16:56 Cloudy with Rain 48 8.9 48 8.9 100 100 SE 10 17 30.06 1018 6 9.65604 0.14 3.556
5:47 pm 17:47 Cloudy with Heavy Rain 50 10 50 10 100 100 SE 13 20 30.02 1017 6 9.65604 0.09 2.286
5:56 pm 17:56 Cloudy with Rain 50 10 50 10 100 100 SE 10 17 30.03 1017 6 9.65604 0.11 2.794
6:06 pm 18:06 Cloudy with Rain 48 9 48 9 100 100 ESE 12 19 30.02 1016 5 8.0467 0.03 0.762
6:56 pm 18:56 Cloudy with Rain 49 9.4 49 9.4 100 100 SE 6 9 30.02 1017 4 6.43736 0.26 6.604
7:22 pm 19:22 Cloudy with Rain 50 10 50 10 100 100 SSE 8 13 30 1016 3 4.82802 0.02 0.508
7:56 pm 19:56 Cloudy with Light Rain 50 10 50 10 100 100 W 7 11 30.02 1017 8 12.87472 0.03 0.762
8:07 pm 20:07 Cloudy with Rain 50 10 50 10 100 100 SSE 5 7 30 1016 5 8.0467 0.01 0.254
8:56 pm 20:56 Cloudy with Rain 52 11.1 52 11.1 100 100 SSW 5 7 30.01 1016 4 6.43736 1.38 35.052
9:27 pm 21:27 Cloudy with Light Rain 54 12 54 12 100 100 WSW 7 11 30.01 1016 3 4.82802 0.02 0.508
9:39 pm 21:39 Cloudy with Light Rain 54 12 54 12 100 100 WSW 7 11 30 1016 2 3.21868 0.03 0.762
9:47 pm 21:47 Cloudy with Light Rain 54 12 54 12 100 100 WSW 8 13 30.01 1016 1.5 2.41401 0.23 5.842
9:56 pm 21:56 Cloudy with Rain 54 12.2 54 12.2 100 100 WSW 9 15 30.02 1017 1.5 2.41401 0.84 21.336
10:27 pm 22:27 Cloudy with Light Rain 55 13 55 13 100 100 WSW 17 28 30.01 1016 2.5 4.02335 2.01 51.054
10:30 pm 22:30 Cloudy with Light Rain 55 13 55 13 100 100 WSW 17 28 30.01 1016 3 4.82802 2.01 51.054
10:54 pm 22:54 Cloudy 55 13 55 13 100 100 W 15 24 30.01 1016 10 16.0934 2.01 51.054
10:56 pm 22:56 Cloudy 56 13.3 56 13.3 100 100 W 13 20 30.03 1017 10 16.0934 2.01 51.054
11:07 pm 23:07 Cloudy with Mist and Fog 55 13 55 13 100 100 W 12 19 30.02 1017 2.5 4.02335 0 0
11:15 pm 23:15 Cloudy with Mist and Fog 55 13 55 13 100 100 W 13 20 30.01 1016 3 4.82802 0 0
11:38 pm 23:38 Cloudy with Light Rain 54 12 54 12 100 100 NW 10 17 30.03 1017 2.5 4.02335 0.001 0.001
11:48 pm 23:48 Cloudy with Light Rain 54 12 54 12 100 100 WNW 8 13 30.04 1017 4 6.43736 0.001 0.001
11:56 pm 23:56 Cloudy with Mist and Fog 52 11.1 52 11.1 100 100 WNW 7 11 30.06 1018 5 8.0467 0.001 0.001

Powered by AerisWeather